When you browse on this site, cookies collect data to enhance your experience and personalize the content and advertising you see.
Visit our Privacy Policy to learn more. By continuing to use the site, you agree to this use of cookies and data.
  • In Hungary
  • List of Countries
  • For 7 days
  • Water Temperature
  • Satellite Maps
  • Weather Map
  • News
  • Weather Widgets
  • user-avatar
    Login

    Hourly Weather Zalaegerszeg

    Today, 17 January, Thursday

    Time Temperature Precipitation Wind Pressure Humidity
    00:00 +2°C° 0 mm 3 mps 745 mmHg 89%
    01:00 +2°C° 0 mm 3 mps 744 mmHg 89%
    02:00 +1°C° 0 mm 4 mps 744 mmHg 88%
    03:00 +1°C° 0 mm 4 mps 744 mmHg 87%
    04:00 +1°C° 0 mm 4 mps 744 mmHg 86%
    05:00 +1°C° 0 mm 4 mps 744 mmHg 86%
    06:00 +3°C° 0 mm 4 mps 744 mmHg 86%
    07:00 +3°C° 0 mm 4 mps 743 mmHg 86%
    08:00 +4°C° 0 mm 4 mps 744 mmHg 82%
    09:00 +5°C° 0 mm 4 mps 744 mmHg 78%
    10:00 +7°C° 0 mm 4 mps 744 mmHg 73%
    11:00 +8°C° 0 mm 5 mps 744 mmHg 69%
    12:00 +9°C° 0 mm 6 mps 744 mmHg 64%
    13:00 +10°C° 0 mm 6 mps 744 mmHg 60%
    14:00 +10°C° 0 mm 6 mps 743 mmHg 63%
    15:00 +9°C° 0 mm 6 mps 743 mmHg 66%
    16:00 +9°C° 0 mm 5 mps 743 mmHg 68%
    17:00 +8°C° 0 mm 5 mps 743 mmHg 70%
    18:00 +8°C° 0 mm 5 mps 743 mmHg 72%
    19:00 +8°C° 0 mm 5 mps 742 mmHg 73%
    20:00 +8°C° 0.1 mm 5 mps 743 mmHg 75%
    21:00 +7°C° 0.1 mm 5 mps 743 mmHg 76%
    22:00 +7°C° 0.1 mm 5 mps 743 mmHg 77%
    23:00 +7°C° 0.9 mm 4 mps 743 mmHg 81%

    Tomorrow, 18 January, Friday

    Time Temperature Precipitation Wind Pressure Humidity
    00:00 +7°C° 0.9 mm 3 mps 743 mmHg 84%
    01:00 +6°C° 0.9 mm 2 mps 743 mmHg 88%
    02:00 +5°C° 2.5 mm 3 mps 743 mmHg 86%
    03:00 +4°C° 2.5 mm 3 mps 743 mmHg 83%
    04:00 +4°C° 2.5 mm 4 mps 743 mmHg 81%
    05:00 +4°C° 1 mm 4 mps 743 mmHg 80%
    06:00 +3°C° 1 mm 3 mps 744 mmHg 79%
    07:00 +3°C° 1 mm 3 mps 745 mmHg 77%
    08:00 +3°C° 0.4 mm 4 mps 745 mmHg 75%
    09:00 +3°C° 0.4 mm 4 mps 746 mmHg 72%
    10:00 +2°C° 0.4 mm 5 mps 747 mmHg 70%
    11:00 +2°C° 0 mm 5 mps 747 mmHg 66%
    12:00 +3°C° 0 mm 4 mps 748 mmHg 63%
    13:00 +1°C° 0 mm 4 mps 748 mmHg 60%
    14:00 +2°C° 0 mm 3 mps 749 mmHg 62%
    15:00 +2°C° 0 mm 3 mps 749 mmHg 63%
    16:00 +3°C° 0 mm 2 mps 750 mmHg 65%
    17:00 +2°C° 0 mm 2 mps 750 mmHg 68%
    18:00 +1°C° 0 mm 2 mps 751 mmHg 70%
    19:00 -1°C° 0 mm 2 mps 751 mmHg 73%
    20:00 -1°C° 0 mm 2 mps 752 mmHg 73%
    21:00 -1°C° 0 mm 2 mps 752 mmHg 74%
    22:00 -1°C° 0 mm 2 mps 752 mmHg 75%
    23:00 -2°C° 0 mm 2 mps 752 mmHg 76%

    Day after tomorrow, 19 January, Saturday

    Time Temperature Precipitation Wind Pressure Humidity
    00:00 -2°C° 0 mm 2 mps 752 mmHg 76%
    01:00 0°C° 0 mm 1 mps 752 mmHg 77%
    02:00 0°C° 0 mm 1 mps 752 mmHg 76%
    03:00 0°C° 0 mm 1 mps 752 mmHg 75%
    04:00 0°C° 0 mm 1 mps 751 mmHg 75%
    05:00 0°C° 0 mm 1 mps 752 mmHg 74%
    06:00 -1°C° 0 mm 1 mps 752 mmHg 73%
    07:00 -1°C° 0 mm 1 mps 752 mmHg 72%
    08:00 0°C° 0 mm 1 mps 752 mmHg 69%
    09:00 0°C° 0 mm 1 mps 752 mmHg 65%
    10:00 +1°C° 0 mm 1 mps 752 mmHg 61%
    11:00 +1°C° 0 mm 1 mps 751 mmHg 58%
    12:00 +2°C° 0 mm 1 mps 751 mmHg 55%
    13:00 +2°C° 0 mm 1 mps 750 mmHg 52%
    14:00 +2°C° 0 mm 1 mps 750 mmHg 54%
    15:00 +2°C° 0 mm 1 mps 750 mmHg 56%
    16:00 +2°C° 0 mm 1 mps 749 mmHg 58%
    17:00 +2°C° 0.1 mm 1 mps 749 mmHg 64%
    18:00 +1°C° 0.1 mm 1 mps 749 mmHg 71%
    19:00 +1°C° 0.1 mm 1 mps 749 mmHg 77%
    20:00 +1°C° 0.1 mm 1 mps 749 mmHg 80%
    21:00 +1°C° 0.1 mm 1 mps 749 mmHg 84%
    22:00 +1°C° 0.1 mm 1 mps 749 mmHg 87%
    23:00 0°C° 0.1 mm 1 mps 749 mmHg 89%

    20 January, Sunday

    Time Temperature Precipitation Wind Pressure Humidity
    00:00 0°C° 0.1 mm 1 mps 749 mmHg 90%
    01:00 0°C° 0.1 mm 1 mps 748 mmHg 92%
    02:00 0°C° 0.1 mm 1 mps 748 mmHg 93%
    03:00 0°C° 0.1 mm 1 mps 748 mmHg 93%
    04:00 -1°C° 0.1 mm 0 mps 748 mmHg 94%
    05:00 -1°C° 0 mm 0 mps 748 mmHg 93%
    06:00 -1°C° 0 mm 0 mps 748 mmHg 93%
    07:00 -1°C° 0 mm 0 mps 748 mmHg 93%
    08:00 0°C° 0 mm 0 mps 748 mmHg 89%
    09:00 0°C° 0 mm 0 mps 748 mmHg 86%
    10:00 +1°C° 0 mm 1 mps 748 mmHg 83%
    11:00 +2°C° 0 mm 1 mps 748 mmHg 79%
    12:00 +2°C° 0 mm 1 mps 748 mmHg 75%
    13:00 +3°C° 0 mm 1 mps 748 mmHg 71%
    14:00 +2°C° 0 mm 1 mps 748 mmHg 73%
    15:00 +2°C° 0 mm 1 mps 748 mmHg 75%
    16:00 +2°C° 0 mm 1 mps 748 mmHg 77%
    17:00 +1°C° 0 mm 1 mps 748 mmHg 80%
    18:00 0°C° 0 mm 1 mps 749 mmHg 83%
    19:00 0°C° 0 mm 1 mps 749 mmHg 85%
    20:00 -1°C° 0 mm 1 mps 750 mmHg 86%
    21:00 -1°C° 0 mm 1 mps 750 mmHg 87%
    22:00 -1°C° 0 mm 1 mps 750 mmHg 88%
    23:00 -1°C° 0 mm 1 mps 751 mmHg 88%

    21 January, Monday

    Time Temperature Precipitation Wind Pressure Humidity
    00:00 -1°C° 0 mm 1 mps 751 mmHg 88%
    01:00 -1°C° 0 mm 1 mps 751 mmHg 88%
    02:00 -1°C° 0 mm 1 mps 751 mmHg 88%
    03:00 -1°C° 0 mm 1 mps 751 mmHg 87%
    04:00 -1°C° 0 mm 1 mps 751 mmHg 87%
    05:00 -1°C° 0 mm 1 mps 751 mmHg 86%
    06:00 -1°C° 0 mm 1 mps 751 mmHg 85%
    07:00 -1°C° 0 mm 1 mps 752 mmHg 85%
    08:00 -1°C° 0 mm 1 mps 752 mmHg 79%
    09:00 -2°C° 0 mm 2 mps 752 mmHg 73%
    10:00 -1°C° 0 mm 2 mps 752 mmHg 67%
    11:00 -1°C° 0 mm 2 mps 752 mmHg 63%
    12:00 +1°C° 0 mm 2 mps 752 mmHg 59%
    13:00 +2°C° 0 mm 2 mps 752 mmHg 55%
    14:00 +2°C° 0 mm 1 mps 751 mmHg 58%
    15:00 +2°C° 0 mm 1 mps 751 mmHg 61%
    16:00 +1°C° 0 mm 1 mps 751 mmHg 64%
    17:00 0°C° 0 mm 1 mps 751 mmHg 65%
    18:00 0°C° 0 mm 1 mps 751 mmHg 66%
    19:00 -1°C° 0 mm 1 mps 751 mmHg 68%
    20:00 -1°C° 0 mm 1 mps 751 mmHg 68%
    21:00 -1°C° 0 mm 1 mps 751 mmHg 67%
    22:00 -2°C° 0 mm 0 mps 751 mmHg 67%
    23:00 -3°C° 0 mm 0 mps 751 mmHg 68%

    22 January, Tuesday

    Time Temperature Precipitation Wind Pressure Humidity
    00:00 -3°C° 0 mm 0 mps 751 mmHg 68%
    01:00 -3°C° 0 mm 0 mps 751 mmHg 69%
    02:00 -2°C° 0 mm 1 mps 750 mmHg 72%
    03:00 -2°C° 0 mm 1 mps 750 mmHg 74%
    04:00 -2°C° 0 mm 1 mps 749 mmHg 77%
    05:00 -2°C° 0 mm 1 mps 749 mmHg 80%
    06:00 -2°C° 0 mm 1 mps 748 mmHg 83%
    07:00 -2°C° 0 mm 1 mps 748 mmHg 86%
    08:00 -4°C° 0 mm 2 mps 747 mmHg 84%
    09:00 -4°C° 0 mm 2 mps 747 mmHg 82%
    10:00 -3°C° 0 mm 2 mps 746 mmHg 81%
    11:00 -3°C° 0.1 mm 2 mps 745 mmHg 78%
    12:00 -4°C° 0.1 mm 3 mps 744 mmHg 76%
    13:00 -2°C° 0.1 mm 3 mps 743 mmHg 74%
    14:00 -4°C° 0.6 mm 3 mps 743 mmHg 79%
    15:00 -4°C° 0.6 mm 3 mps 742 mmHg 85%
    16:00 -4°C° 0.6 mm 3 mps 741 mmHg 91%
    17:00 -5°C° 0.6 mm 3 mps 741 mmHg 91%
    18:00 -5°C° 0.6 mm 3 mps 741 mmHg 92%
    19:00 -5°C° 0.6 mm 3 mps 741 mmHg 93%
    20:00 -5°C° 0.2 mm 3 mps 740 mmHg 93%
    21:00 -5°C° 0.2 mm 3 mps 740 mmHg 93%
    22:00 -4°C° 0.2 mm 2 mps 740 mmHg 93%
    23:00 -4°C° 0 mm 2 mps 740 mmHg 94%
    Show more